Location: *
(43.4667°N, 11.6833°E)
Time: 06:44:26
(UTC+00:00)

Cosmos 1825 - Pass Details

Date: 19 July 2019
Orbit: 504 x 509 km, 82.5° (Epoch: 20 August)

Event Time Altitude Azimuth Distance (km) Brightness Sun altitude
Exits shadow 21:17:28 17° 227° (SW) 1,348 4.2 -19.9°
Maximum altitude 21:19:51 33° 284° (WNW) 868 3.7 -20.1°
Drops below altitude 10° 21:23:19 10° 350° (N) 1,727 5.9 -20.4°
Sets 21:25:36 0° 360° (N) 2,617 6.8 -20.6°
